Location: Bakov nad Jizerou
(50.4784°N, 14.9394°E)
Time: 03:10:34
(UTC+00:00)

Cosmos 1727 Rocket - Pass Details

Date: 28 October 2021
Orbit: 960 x 997 km, 82.9° (Epoch: 07 December)

Event Time Altitude Azimuth Distance (km) Brightness Sun altitude
Rises 16:25:57 0° 346° (NNW) 3,671 7.1 -7.4°
Reaches altitude 10° 16:28:35 10° 340° (NNW) 2,716 6.5 -7.8°
Maximum altitude 16:34:22 43° 271° (W) 1,326 5.4 -8.7°
Drops below altitude 10° 16:40:07 10° 202° (SSW) 2,690 6.8 -9.6°
Sets 16:42:42 0° 196° (SSW) 3,632 7.3 -10.1°
